Miscellaneous Local Product
Issued by NWS Hastings, NE

Home | Current Version | Previous Version | Text Only | Print | Product List | Glossary Off
Versions: 1 2 3 4 5 6 7 8 9 10 11 12 13 14 15 16 17 18 19 20 21 22 23 24 25 26 27 28 29 30 31 32 33 34 35 36 37 38 39 40 41 42 43 44 45 46 47 48 49 50

816
AXUS43 KGID 221902
MISGRI

GID CWA HOURLY WEATHER ROUNDUP
NATIONAL WEATHER SERVICE HASTINGS NE
100 PM CST WED NOV 22 2017

NOTE: "FAIR" INDICATES FEW OR NO CLOUDS BELOW 12,000 FEET WITH NO
SIGNIFICANT WEATHER AND/OR OBSTRUCTIONS TO VISIBILITY.

...SOUTH CENTRAL NEBRASKA...

CITY           SKY/WX    TMP DP  RH WIND       PRES   REMARKS
GRAND ISLAND   CLOUDY    44  19  36 S16G23    30.15F
KEARNEY        CLOUDY    48  23  37 SW16      30.14F
HASTINGS       CLOUDY    43  17  35 S16G26    30.16F
ORD            CLOUDY    47  24  40 SW17      30.09F
YORK           CLOUDY    39  16  38 S17G24    30.20F WCI  30
AURORA         CLOUDY    42  16  34 S17G25    30.17F
LEXINGTON      SUNNY     51  29  42 SW14      30.13F
HOLDREGE       SUNNY     50  27  40 SW13G20   30.14F
HEBRON         MOSUNNY   41  14  33 S14       30.24F

...NEBRASKA PANHANDLE...

CITY           SKY/WX    TMP DP  RH WIND       PRES   REMARKS
CHADRON        SUNNY     64  39  39 NW10      30.08F
ALLIANCE       SUNNY     67  37  33 NW15G25   30.10F
SCOTTSBLUFF    SUNNY     69  38  32 NW15G23   30.13F
SIDNEY         SUNNY     68  37  32 NW26G37   30.15F

...WESTERN AND NORTH CENTRAL NEBRASKA...

CITY           SKY/WX    TMP DP  RH WIND       PRES   REMARKS
VALENTINE      SUNNY     66  35  31 W14       30.00F
AINSWORTH      SUNNY     62  35  36 W10G16    30.01F
ONEILL         SUNNY     44  25  47 S16G24    30.05F
BROKEN BOW     SUNNY     53  29  39 SW10      30.08F
IMPERIAL       SUNNY     66  36  32 W14       30.12F
NORTH PLATTE   SUNNY     60  36  40 SW7       30.10F
MCCOOK         SUNNY     57  34  41 SW5       30.13F

...EASTERN NEBRASKA...

CITY           SKY/WX    TMP DP  RH WIND       PRES   REMARKS
NORFOLK        CLOUDY    38  17  42 S24G32    30.11F WCI  27
SO SIOUX CITY  CLOUDY    35  15  44 S14G22    30.17F WCI  26
TEKAMAH        CLOUDY    35  15  44 S17       30.23F WCI  25
COLUMBUS       CLOUDY    37  16  42 S20       30.18F WCI  27
ALBION         MOSUNNY   42  19  39 S18G26    30.12F
OMAHA EPPLEY   PTSUNNY   35  13  40 S15       30.26F WCI  25
OFFUTT AFB     CLOUDY    36  12  37 S12       30.27F WCI  28
MILLARD        CLOUDY    36  16  43 S10       30.26F WCI  29
LINCOLN        MOSUNNY   37  14  38 S17       30.25F WCI  27
NEBRASKA CITY  CLOUDY    37  16  43 SW15      30.28F WCI  28
BEATRICE       CLOUDY    37  16  41 S14       30.26F WCI  29
FALLS CITY     CLOUDY    37  13  37 SW12      30.31F WCI  29

...NORTHERN KANSAS...

CITY           SKY/WX    TMP DP  RH WIND       PRES   REMARKS
GOODLAND       SUNNY     67  33  28 NW8       30.16F
HILL CITY      SUNNY     57  30  35 SW15      30.17F
NORTON         CLEAR     57  25  28 S8        30.14F
PHILLIPSBURG   SUNNY     54  23  30 S10G17    30.17F
HAYS           SUNNY     54  23  30 SW17G26   30.20F
RUSSELL        SUNNY     50  19  29 S21G29    30.21F
CONCORDIA      SUNNY     42  15  33 S16       30.25F
SALINA         SUNNY     46  17  31 S14       30.29F
TOPEKA         SUNNY     39  15  37 SW6       30.33F WCI  35



USA.gov is the U.S. government's official web portal to all federal, state and local government web resources and services.